Wind_Speed
7 6 6 8 3 4 14 4 15 19 17 13 14 18 17 16 14 11 5 5 4 5 7 10 12 12 11 11 10 13 12 9 8 9 9 10 10 10 9 9 9 11 12 13 13 13 13 14 15
7 5 5 2 3 16 17 13 13 12 12 12 14 15 13 20 13 10 2 3 6 6 10 12 13 13 12 11 10 10 11 10 8 8 8 9 9 9 10 8 8 10 11 12 13 13 13 13 13
6 5 5 4 10 18 7 10 8 9 11 9 8 8 14 11 8 6 4 5 6 7 10 13 15 14 14 12 10 9 10 9 9 8 9 9 9 9 8 9 9 10 12 13 13 13 14 14 14
6 4 3 10 7 6 9 10 10 10 9 12 7 5 8 10 6 6 5 6 7 8 10 12 15 16 14 14 11 9 8 9 9 9 9 9 9 8 8 9 10 11 12 13 14 14 15 15 15
5 7 10 16 11 14 11 10 11 14 11 13 9 6 4 8 8 6 6 6 7 7 8 11 12 15 15 14 13 10 8 8 8 8 8 8 8 8 8 9 10 10 12 13 13 14 13 13 12
5 4 13 17 12 13 12 11 13 9 12 14 10 4 4 5 7 7 8 7 6 6 7 7 10 12 13 14 14 13 10 8 7 6 7 7 7 7 8 8 9 10 10 11 11 10 10 9 8
4 8 18 21 6 8 10 7 16 10 7 16 6 6 6 0 4 4 5 6 6 6 4 4 5 8 11 11 12 13 12 11 8 6 6 7 7 6 6 8 9 9 9 9 9 9 9 9 8
8 12 17 20 10 11 7 1 17 7 11 11 8 6 2 2 2 2 2 2 3 5 2 1 4 4 6 8 10 10 12 12 12 10 8 7 7 7 6 6 7 8 9 9 9 9 9 9 9
10 10 14 13 6 13 11 4 9 4 3 1 6 6 1 2 2 0 1 1 2 3 1 1 1 3 4 6 8 9 10 11 12 11 10 9 8 8 8 7 7 8 8 8 9 9 9 9 10
9 7 3 3 11 10 9 5 20 5 4 5 6 13 11 1 2 4 6 7 4 1 0 2 3 3 4 5 6 7 9 10 11 11 11 11 10 9 10 10 10 9 9 9 9 10 10 11 11
5 6 8 13 11 10 7 6 13 5 5 3 0 4 10 9 10 5 1 9 17 11 4 3 4 5 5 5 6 6 8 10 10 11 12 12 12 12 12 11 12 11 11 10 11 11 12 13 14
8 12 5 9 12 9 12 3 5 10 3 2 1 4 4 5 12 4 1 3 12 21 17 7 7 7 7 8 5 7 7 9 11 12 13 14 14 14 14 14 15 14 14 13 13 13 14 15 16
10 11 17 14 8 11 10 5 3 1 4 6 9 6 8 11 6 6 6 8 10 14 24 19 11 9 10 11 10 7 9 9 11 12 14 16 16 16 16 17 17 17 17 16 16 16 17 18 19
11 10 9 12 12 10 12 10 6 7 10 11 10 12 10 11 14 14 12 9 17 15 14 25 19 15 13 13 15 13 11 13 12 13 14 15 19 19 19 19 20 19 20 19 19 18 19 20 21
15 14 7 7 10 17 12 11 9 9 10 11 13 7 11 16 19 18 14 17 16 19 22 17 26 20 17 17 17 19 17 16 17 15 17 16 17 21 22 22 23 23 22 22 22 22 22 22 22
16 13 8 4 8 16 17 10 9 13 12 14 12 8 9 15 17 20 18 17 16 16 18 23 20 22 23 21 21 22 23 22 21 22 20 21 19 20 23 24 24 26 26 26 25 24 24 24 24
19 17 15 5 7 17 12 11 11 14 14 14 11 4 4 12 16 17 17 16 16 16 19 21 23 26 26 25 24 26 27 27 26 25 25 24 23 23 24 26 25 27 28 30 29 28 28 27 27
19 22 22 10 12 15 20 17 14 13 16 14 13 9 3 6 11 15 17 14 14 16 18 19 21 22 26 29 30 27 27 31 31 30 28 28 29 28 27 27 28 28 30 30 32 33 30 30 29
20 19 17 17 18 22 20 19 17 15 15 15 14 13 12 10 8 13 13 14 14 13 15 17 19 20 22 24 30 34 35 31 26 32 33 31 32 36 33 29 29 31 32 33 32 34 35 33 31
13 20 19 18 19 21 21 19 15 14 14 13 11 11 11 9 9 13 16 14 14 14 14 16 17 20 22 24 26 28 31 34 33 27 29 37 37 36 40 35 32 33 36 36 36 36 36 35 35
15 21 22 23 23 18 21 17 14 11 11 10 10 10 10 9 6 8 12 13 15 14 13 11 17 20 20 21 24 26 29 31 34 37 38 35 36 41 39 40 40 39 39 41 39 39 39 39 37
18 15 15 23 27 28 23 12 13 13 11 8 7 7 7 7 6 5 9 11 13 15 17 17 15 15 17 21 25 26 26 29 34 37 39 43 39 37 44 41 42 45 44 44 44 42 43 42 43
13 22 17 21 22 13 22 9 19 15 13 9 5 5 3 4 3 8 13 14 15 14 14 18 22 25 25 23 25 27 25 28 30 36 37 36 34 36 40 35 35 47 47 48 47 47 47 47 47
16 17 12 13 15 12 17 20 20 21 15 10 6 4 5 4 4 9 13 15 16 16 18 21 22 21 27 30 30 28 29 32 32 35 38 43 46 47 44 48 49 46 45 50 50 50 52 53 52
13 21 11 9 9 8 17 11 17 19 16 12 10 6 5 2 4 10 14 18 21 21 21 23 23 23 25 25 30 33 32 32 33 36 36 40 43 46 44 45 33 42 48 45 50 52 53 54 56
19 23 7 7 10 10 11 10 13 15 14 13 10 7 4 2 8 10 17 19 21 23 23 21 24 26 28 28 29 29 33 33 34 34 38 40 41 50 48 56 51 44 41 50 47 47 51 52 56
18 15 13 3 2 11 15 11 15 15 14 12 10 6 3 1 5 12 14 18 17 19 22 23 24 26 26 28 29 27 29 31 32 31 34 38 37 45 50 48 60 50 54 52 47 55 46 51 52
16 12 9 6 4 5 16 19 11 22 17 13 9 7 4 1 4 8 11 18 19 21 24 25 25 26 27 28 29 30 30 30 32 31 31 35 39 47 50 50 52 52 63 56 59 52 51 54 52
12 11 9 7 5 5 5 5 15 22 19 15 11 9 5 4 3 5 9 14 20 23 24 27 28 28 27 28 29 31 30 31 32 34 34 34 37 36 50 52 50 69 47 76 70 49 54 60 50
18 14 15 9 8 8 3 8 13 20 20 18 12 10 7 5 4 7 11 16 21 24 25 27 27 28 28 29 31 30 29 32 32 33 34 36 37 36 40 46 54 45 53 56 62 66 78 68 60
Wind_Direction
258 259 265 287 4 344 327 70 80 72 71 61 48 47 30 46 55 93 133 346 69 128 138 134 136 133 133 135 135 122 112 106 96 98 97 104 109 108 104 103 106 114 119 124 124 123 121 121 123
244 251 249 348 205 81 286 45 77 78 69 46 50 65 17 44 40 88 55 53 117 133 137 136 135 135 136 136 135 126 118 111 102 101 105 107 105 102 102 103 109 116 122 124 124 122 122 123 127
234 237 237 275 228 140 283 40 73 81 71 53 80 6 36 64 44 30 62 82 115 131 133 136 136 139 139 137 134 126 120 115 110 107 109 106 103 100 99 108 113 116 122 122 121 123 126 131 133
223 212 274 253 94 119 115 65 53 75 82 58 24 43 36 52 48 35 53 82 106 126 130 134 138 140 142 138 136 126 119 115 111 112 114 114 111 104 107 116 116 122 124 126 128 130 134 136 137
170 192 257 265 218 140 97 66 64 59 68 56 27 71 43 59 62 54 47 58 98 112 128 135 140 143 147 144 140 133 121 116 115 116 122 125 124 115 111 116 123 125 130 132 133 137 140 141 140
197 248 266 256 225 139 130 77 69 74 54 69 13 302 19 66 63 57 47 40 38 104 117 133 145 150 153 152 148 144 138 129 128 129 133 136 139 131 125 127 136 136 138 137 136 139 141 143 141
230 242 258 260 181 126 112 108 92 59 91 82 91 69 47 38 75 59 57 41 39 55 84 118 144 158 162 163 160 157 153 149 149 150 154 155 157 152 143 142 144 153 153 151 155 160 161 165 168
243 257 270 264 261 93 138 247 110 65 75 138 144 74 88 31 125 97 69 48 30 62 58 120 148 160 176 180 176 176 170 165 163 167 172 175 176 177 175 167 166 171 176 178 181 187 190 193 192
206 249 245 293 121 96 95 91 97 88 174 224 150 30 317 30 331 23 314 19 28 20 20 324 203 173 185 201 207 196 194 187 179 177 179 188 193 195 197 196 196 197 198 198 203 207 210 211 209
225 250 193 132 110 102 79 146 120 193 150 193 79 91 20 280 2 344 323 309 312 267 43 269 278 234 205 212 222 233 224 211 203 195 191 194 202 210 215 211 215 217 221 222 221 222 222 222 221
225 251 235 197 178 126 89 278 170 154 234 268 349 77 107 69 1 343 213 297 314 312 272 250 253 260 260 238 222 242 250 248 231 219 212 210 210 214 225 227 231 236 236 239 242 242 239 236 232
204 197 195 225 208 158 122 290 262 190 225 44 31 87 78 77 109 106 10 286 281 299 301 257 247 251 247 266 246 235 244 257 262 254 235 230 226 227 229 227 238 239 244 247 247 248 248 244 238
205 206 220 229 230 219 114 137 16 292 41 49 68 65 75 72 65 162 122 172 181 277 290 289 257 245 252 254 260 261 264 240 248 257 261 256 247 238 235 240 237 236 241 246 250 252 249 246 241
196 186 173 212 215 175 150 135 177 46 85 85 88 82 129 171 171 216 193 193 175 178 275 282 273 251 246 249 258 257 259 272 261 252 250 256 264 261 253 243 245 242 244 241 248 249 252 250 247
179 176 195 178 179 157 173 79 73 68 88 107 102 120 195 212 225 237 241 241 242 209 195 256 271 258 243 248 251 257 252 255 263 263 265 251 248 262 266 260 256 249 247 248 247 250 253 252 250
190 187 185 236 190 167 158 112 84 102 112 107 121 153 233 252 251 250 244 246 253 249 232 220 239 267 253 240 248 256 259 256 257 264 259 267 261 253 258 262 262 263 260 256 253 254 254 255 252
190 202 190 136 169 165 149 119 108 119 114 111 108 127 244 265 275 270 262 252 244 240 244 250 253 244 239 248 244 249 257 259 257 255 264 265 263 265 264 263 259 262 263 262 261 257 258 255 253
199 220 188 146 152 153 158 122 109 108 115 106 94 80 32 327 297 289 280 276 254 252 256 260 264 266 261 247 236 242 260 259 262 263 257 264 266 260 260 262 267 262 261 261 264 265 260 260 258
275 200 144 134 143 140 133 125 119 114 109 107 96 80 64 48 350 318 312 312 300 272 259 257 259 264 270 268 258 250 238 244 257 271 264 262 263 267 261 258 263 266 265 265 261 263 266 263 261
182 157 147 141 149 141 136 126 125 122 115 107 95 89 80 62 24 343 328 334 322 303 274 263 264 266 266 270 271 269 268 260 249 247 265 276 264 260 267 264 258 261 265 264 264 264 263 264 263
174 162 163 172 155 150 137 129 131 126 113 101 95 88 74 64 39 2 352 357 352 344 339 317 282 269 269 272 275 276 273 268 266 255 251 250 270 268 268 264 262 257 259 261 262 263 264 265 263
161 164 171 164 165 167 167 143 156 148 130 122 103 83 76 71 31 1 348 351 1 350 345 340 335 326 310 290 277 275 276 276 268 263 260 251 257 259 274 265 262 260 257 259 260 260 262 262 261
207 158 159 175 181 165 204 217 171 169 155 142 127 107 102 62 1 342 338 334 333 333 325 325 325 324 322 320 304 292 292 284 280 273 259 250 250 251 253 253 265 261 258 258 258 259 258 260 261
169 151 161 181 204 232 202 204 182 187 172 159 147 134 101 80 354 328 336 337 336 329 319 316 315 312 316 316 314 303 294 287 284 277 272 260 251 247 254 254 253 253 261 258 257 256 258 259 258
154 157 149 191 188 236 174 181 140 155 158 161 154 143 110 20 349 327 320 322 321 318 318 316 316 315 313 315 312 309 307 304 299 289 276 267 259 256 244 247 247 255 259 256 261 258 255 256 258
188 191 203 200 201 155 162 180 168 161 157 155 153 145 115 44 321 315 315 315 318 319 320 318 317 316 315 315 311 309 307 298 302 300 292 283 271 254 258 245 253 247 250 260 253 257 260 260 259
184 210 233 248 284 156 163 106 141 161 161 161 164 171 165 32 334 317 317 319 328 336 334 333 330 326 324 324 323 319 312 307 308 295 288 279 283 267 258 259 250 256 253 251 252 255 254 256 258
168 194 201 218 203 208 176 175 195 184 178 177 181 178 198 247 326 332 334 323 332 339 337 335 334 334 333 328 324 321 318 316 313 308 307 287 283 281 266 262 260 243 249 262 260 257 254 254 255
192 187 188 209 230 235 191 147 201 178 176 178 185 207 210 244 286 306 305 313 322 330 335 335 335 336 335 333 330 327 324 317 311 309 309 305 295 294 277 268 263 261 263 246 252 258 262 245 255
206 211 197 199 194 223 353 119 151 163 173 180 188 217 225 255 285 302 308 315 318 325 334 335 334 335 334 334 332 330 328 323 319 314 310 305 304 306 299 276 269 274 256 253 258 252 252 263 268
Height
3169 3168 3167 3165 3172 3174 3162 3162 3159 3161 3164 3167 3167 3167 3164 3163 3163 3170 3169 3166 3168 3167 3167 3166 3167 3168 3170 3172 3174 3173 3174 3176 3178 3179 3180 3181 3181 3182 3183 3183 3183 3184 3185 3187 3188 3190 3191 3192 3193
3167 3168 3168 3168 3175 3172 3167 3161 3162 3165 3166 3168 3169 3169 3166 3166 3166 3167 3169 3167 3169 3169 3168 3168 3169 3170 3171 3173 3176 3176 3176 3178 3180 3181 3182 3182 3183 3184 3184 3185 3186 3186 3187 3189 3190 3192 3193 3195 3196
3166 3167 3168 3168 3169 3171 3168 3166 3166 3167 3168 3170 3169 3169 3169 3171 3169 3169 3169 3169 3169 3170 3170 3170 3170 3172 3173 3174 3177 3178 3179 3180 3181 3182 3183 3184 3185 3186 3187 3187 3188 3189 3190 3191 3192 3194 3195 3197 3198
3166 3167 3168 3165 3169 3170 3170 3169 3169 3169 3169 3171 3169 3168 3171 3170 3170 3170 3170 3169 3171 3171 3171 3171 3171 3172 3174 3175 3177 3179 3181 3182 3183 3183 3185 3186 3187 3188 3189 3189 3191 3192 3192 3193 3194 3195 3196 3198 3200
3164 3166 3168 3166 3166 3164 3168 3170 3171 3170 3171 3172 3168 3170 3171 3171 3171 3171 3172 3171 3171 3173 3173 3173 3174 3174 3175 3176 3177 3180 3181 3183 3184 3185 3186 3188 3189 3190 3191 3191 3192 3194 3195 3195 3196 3198 3199 3201 3202
3164 3168 3168 3164 3163 3162 3164 3169 3171 3170 3172 3174 3171 3170 3172 3172 3172 3172 3172 3173 3173 3174 3175 3176 3176 3176 3177 3177 3178 3179 3181 3183 3185 3187 3188 3189 3191 3191 3192 3193 3194 3195 3196 3197 3199 3200 3202 3203 3204
3163 3167 3166 3162 3163 3160 3164 3166 3169 3171 3170 3171 3173 3170 3173 3172 3173 3173 3173 3174 3174 3176 3176 3177 3178 3178 3178 3179 3179 3180 3181 3183 3185 3187 3189 3190 3191 3193 3194 3194 3195 3196 3197 3199 3200 3201 3202 3203 3204
3165 3167 3165 3161 3163 3161 3164 3164 3169 3170 3169 3171 3170 3172 3173 3173 3173 3173 3174 3175 3174 3175 3177 3178 3178 3180 3180 3180 3180 3181 3181 3182 3184 3186 3188 3190 3192 3193 3194 3196 3196 3197 3198 3199 3200 3201 3202 3203 3204
3161 3165 3163 3163 3156 3162 3165 3166 3171 3170 3167 3170 3171 3171 3172 3173 3174 3174 3174 3175 3175 3176 3177 3178 3179 3180 3181 3182 3183 3182 3183 3183 3184 3185 3187 3190 3192 3193 3195 3196 3197 3198 3198 3199 3200 3201 3202 3203 3204
3160 3162 3162 3160 3159 3161 3164 3162 3169 3170 3166 3168 3171 3172 3173 3174 3175 3175 3175 3174 3175 3176 3177 3178 3180 3180 3180 3182 3183 3185 3185 3185 3185 3186 3187 3189 3191 3193 3194 3196 3196 3197 3199 3199 3200 3201 3202 3203 3203
3160 3163 3158 3157 3158 3161 3163 3162 3166 3167 3166 3169 3172 3173 3174 3178 3175 3176 3178 3178 3174 3175 3176 3179 3179 3180 3181 3181 3183 3184 3186 3187 3187 3187 3187 3188 3189 3191 3193 3195 3196 3197 3198 3199 3200 3200 3201 3202 3202
3158 3157 3156 3155 3157 3160 3162 3163 3164 3165 3167 3168 3170 3172 3174 3176 3177 3180 3181 3182 3181 3175 3174 3176 3179 3180 3180 3180 3183 3182 3184 3186 3188 3189 3188 3188 3189 3190 3191 3193 3194 3196 3197 3198 3198 3199 3200 3200 3201
3155 3153 3154 3155 3157 3159 3163 3165 3163 3165 3167 3169 3171 3172 3174 3175 3174 3173 3175 3178 3181 3180 3175 3174 3175 3178 3180 3179 3179 3182 3183 3184 3185 3187 3189 3190 3189 3189 3190 3191 3192 3193 3194 3195 3196 3197 3197 3197 3198
3152 3149 3151 3152 3155 3159 3163 3163 3163 3165 3169 3171 3171 3172 3169 3166 3164 3165 3169 3168 3172 3176 3176 3173 3173 3174 3176 3179 3178 3178 3180 3182 3183 3183 3185 3187 3189 3189 3189 3189 3189 3190 3191 3192 3193 3193 3194 3195 3195
3148 3148 3148 3150 3153 3158 3159 3162 3163 3165 3167 3169 3169 3166 3163 3161 3161 3164 3166 3165 3167 3168 3170 3171 3170 3171 3173 3175 3178 3177 3177 3178 3179 3182 3182 3183 3185 3186 3187 3188 3188 3187 3187 3188 3189 3190 3190 3191 3192
3146 3149 3149 3148 3151 3155 3157 3161 3162 3164 3165 3165 3163 3161 3158 3157 3158 3160 3163 3163 3165 3165 3166 3165 3166 3167 3168 3171 3173 3175 3175 3175 3176 3177 3179 3181 3182 3183 3183 3184 3186 3187 3186 3185 3185 3186 3186 3187 3187
3143 3143 3147 3147 3149 3153 3156 3160 3161 3161 3163 3162 3160 3158 3157 3156 3155 3155 3158 3161 3162 3162 3161 3162 3162 3161 3160 3165 3168 3169 3171 3172 3172 3173 3175 3176 3178 3179 3181 3180 3181 3182 3183 3183 3182 3183 3182 3182 3183
3136 3139 3143 3145 3149 3152 3154 3157 3159 3161 3161 3161 3159 3158 3156 3154 3153 3152 3154 3156 3158 3160 3160 3161 3160 3160 3160 3160 3159 3163 3165 3167 3169 3171 3171 3172 3172 3173 3174 3175 3177 3178 3177 3178 3180 3179 3179 3179 3179
3133 3136 3139 3146 3149 3150 3154 3157 3160 3161 3161 3160 3160 3159 3157 3154 3152 3149 3150 3153 3154 3156 3157 3157 3156 3157 3158 3158 3157 3157 3156 3158 3163 3165 3166 3167 3167 3166 3167 3170 3171 3171 3172 3172 3173 3174 3174 3174 3175
3130 3133 3140 3146 3149 3150 3154 3157 3159 3159 3159 3160 3159 3158 3157 3154 3152 3149 3147 3149 3149 3150 3152 3154 3154 3153 3154 3153 3153 3154 3155 3157 3158 3160 3161 3160 3161 3160 3160 3163 3165 3165 3165 3165 3166 3167 3167 3168 3170
3129 3132 3138 3141 3146 3151 3153 3157 3158 3159 3159 3159 3158 3157 3156 3154 3152 3149 3147 3147 3147 3146 3147 3148 3149 3149 3150 3149 3149 3149 3149 3149 3149 3150 3150 3149 3153 3153 3154 3153 3154 3156 3156 3156 3159 3160 3160 3160 3162
3127 3131 3137 3140 3142 3144 3146 3152 3156 3157 3158 3159 3158 3157 3155 3153 3150 3149 3147 3146 3146 3144 3143 3143 3144 3143 3143 3142 3141 3142 3142 3142 3141 3141 3142 3145 3143 3141 3144 3145 3144 3144 3146 3146 3148 3150 3151 3152 3152
3128 3129 3135 3139 3141 3143 3146 3149 3151 3154 3156 3157 3156 3155 3153 3151 3149 3147 3144 3144 3143 3144 3143 3140 3139 3138 3137 3136 3135 3134 3134 3134 3133 3132 3132 3134 3136 3134 3133 3130 3132 3133 3134 3135 3138 3139 3139 3141 3142
3124 3129 3136 3139 3140 3140 3138 3143 3147 3149 3152 3153 3154 3153 3150 3148 3147 3146 3144 3141 3141 3141 3140 3139 3137 3136 3133 3129 3127 3127 3126 3125 3124 3124 3123 3124 3124 3124 3123 3120 3120 3122 3123 3123 3125 3127 3127 3128 3129
3124 3128 3133 3136 3135 3133 3134 3140 3140 3144 3146 3149 3152 3150 3148 3146 3145 3143 3142 3140 3138 3138 3137 3135 3133 3132 3130 3127 3123 3119 3118 3117 3114 3113 3113 3112 3112 3111 3113 3112 3109 3111 3111 3111 3114 3114 3114 3115 3116
3120 3123 3121 3124 3126 3128 3133 3134 3139 3141 3143 3145 3148 3147 3146 3145 3143 3142 3138 3137 3136 3133 3132 3132 3129 3127 3124 3121 3119 3116 3112 3109 3108 3105 3103 3101 3100 3100 3100 3100 3099 3100 3098 3098 3101 3102 3102 3103 3103
3119 3120 3122 3123 3122 3123 3128 3135 3137 3138 3140 3142 3144 3145 3144 3143 3141 3139 3136 3134 3133 3131 3128 3127 3124 3122 3119 3116 3112 3110 3107 3104 3101 3099 3097 3095 3092 3091 3090 3087 3087 3088 3091 3087 3087 3089 3088 3090 3091
3112 3118 3120 3120 3119 3118 3118 3125 3126 3133 3136 3139 3140 3143 3143 3141 3140 3137 3134 3131 3129 3127 3125 3123 3121 3117 3114 3110 3108 3104 3102 3099 3096 3093 3090 3088 3085 3083 3079 3076 3076 3072 3075 3075 3075 3073 3074 3073 3076
3109 3111 3114 3116 3116 3113 3111 3119 3121 3126 3131 3135 3139 3139 3139 3137 3136 3135 3133 3129 3125 3123 3122 3119 3116 3113 3110 3106 3103 3099 3096 3093 3090 3086 3082 3079 3076 3072 3070 3068 3064 3062 3059 3061 3060 3057 3059 3058 3055
3107 3109 3111 3112 3115 3114 3114 3124 3125 3127 3129 3131 3134 3134 3134 3133 3133 3131 3129 3125 3122 3120 3118 3115 3112 3109 3105 3101 3097 3094 3091 3087 3083 3080 3075 3070 3066 3062 3058 3054 3053 3050 3048 3047 3044 3038 3046 3040 3041